Location: Munkebjergskolens Observatorium
(55.3864°N, 10.3987°E)
Time: 22:45:47
(UTC+01:00)

Envisat - Pass Details

Date: 03 December 2022
Orbit: 763 x 765 km, 98.2° (Epoch: 01 February)

Event Time Altitude Azimuth Distance (km) Brightness Sun altitude
Rises 06:56:25 0° 9° (N) 3,249 6.1 -11.5°
Reaches altitude 10° 06:59:36 10° 348° (NNW) 2,318 5.2 -11.1°
Maximum altitude 07:02:31 16° 313° (NW) 1,956 4.5 -10.7°
Enters shadow 07:03:59 14° 293° (WNW) 2,054 4.5 -10.5°
